Tunica, MS

12:05 AM CDT on June 23, 2017 (GMT -0500)
Tunica

Weather History for KUTA - March, 2013

Change the Weather History Date:

Monday, March 11, 2013

  Actual Average (KAWM) Record (KAWM)
Temperature  
Mean Temperature 40 °F -  
Max Temperature 46 °F 60 °F 78 °F (2006)
Min Temperature 35 °F 40 °F 22 °F (1969)
Degree Days  
Heating Degree Days 24    
Moisture  
Dew Point 34 °F    
Average Humidity 73    
Maximum Humidity 93    
Minimum Humidity 57    
Precipitation  
Precipitation 0.00 in - - ()
Sea Level Pressure  
Sea Level Pressure 29.97 in    
Wind  
Wind Speed 9 mph (West)    
Max Wind Speed 17 mph    
Max Gust Speed 22 mph    
Visibility 10 miles    
Events      
Averages and records for this station are not official NWS values.
T = Trace of Precipitation, MM = Missing Value Source: NWS Daily Summary

Daily Weather History Graph

Daily Weather History Graph

Search for Another Location

Airport or City:

Trip Planner

Search our weather history database for the weather conditions in past years. The results will help you decide how hot, cold, wet, or windy it might be!

Date:

Astronomy

Mar. 11, 2013 Rise Set
Actual Time 7:17 AM CDT 7:06 PM CDT
Civil Twilight 6:51 AM CDT 7:31 PM CDT
Nautical Twilight 6:22 AM CDT 8:00 PM CDT
Astronomical Twilight 5:53 AM CDT 8:29 PM CDT
Moon 6:52 AM CDT (3/11) 7:15 PM CDT (3/11)
Length of Visible Light 12h 39m
Length of Day
11h 48m
Waning Crescent, 0% of the Moon is Illuminated
Mar 11
Waning Crescent
Mar 11
New
Mar 19
First Quarter
Mar 27
Full
Apr 2
Last Quarter

Hourly Weather History & Observations

Time (CDT) Temp. Windchill Dew Point Humidity Pressure Visibility Wind Dir Wind Speed Gust Speed Precip Events Conditions
12:15 AM 46.4 °F 40.7 °F 41.0 °F 81% 29.89 in 10.0 mi WNW 12.7 mph - N/A   Mostly Cloudy
12:35 AM 46.4 °F 41.9 °F 41.0 °F 81% 29.90 in 10.0 mi West 9.2 mph - N/A   Scattered Clouds
12:55 AM 46.4 °F 41.1 °F 41.0 °F 81% 29.90 in 10.0 mi West 11.5 mph - N/A   Scattered Clouds
1:55 AM 44.6 °F 40.2 °F 39.2 °F 81% 29.90 in 10.0 mi West 8.1 mph - N/A   Scattered Clouds
2:15 AM 44.6 °F 39.7 °F 37.4 °F 76% 29.89 in 10.0 mi West 9.2 mph - N/A   Scattered Clouds
2:55 AM 44.6 °F 40.7 °F 39.2 °F 81% 29.91 in 10.0 mi WSW 6.9 mph - N/A   Mostly Cloudy
3:15 AM 44.6 °F 40.7 °F 37.4 °F 76% 29.91 in 10.0 mi West 6.9 mph - N/A   Mostly Cloudy
3:35 AM 44.6 °F 39.7 °F 37.4 °F 76% 29.91 in 10.0 mi West 9.2 mph - N/A   Scattered Clouds
3:55 AM 44.6 °F 41.4 °F 37.4 °F 76% 29.90 in 10.0 mi West 5.8 mph - N/A   Mostly Cloudy
4:15 AM 42.8 °F 37.5 °F 37.4 °F 81% 29.89 in 10.0 mi West 9.2 mph - N/A   Mostly Cloudy
4:35 AM 42.8 °F 36.6 °F 35.6 °F 76% 29.90 in 10.0 mi West 11.5 mph - N/A   Scattered Clouds
5:15 AM 42.8 °F 35.1 °F 35.6 °F 76% 29.91 in 10.0 mi West 16.1 mph - N/A   Overcast
5:35 AM 41.0 °F 33.1 °F 33.8 °F 76% 29.93 in 10.0 mi West 15.0 mph 21.9 mph N/A   Overcast
5:55 AM 41.0 °F 33.5 °F 33.8 °F 76% 29.91 in 10.0 mi West 13.8 mph 20.7 mph N/A   Overcast
6:15 AM 41.0 °F 34.7 °F 33.8 °F 76% 29.93 in 10.0 mi West 10.4 mph - N/A   Overcast
6:35 AM 41.0 °F 32.5 °F 32.0 °F 70% 29.94 in 10.0 mi West 17.3 mph 21.9 mph N/A   Overcast
6:55 AM 41.0 °F 33.9 °F 33.8 °F 76% 29.94 in 10.0 mi West 12.7 mph - N/A   Overcast
7:15 AM 39.2 °F 31.2 °F 32.0 °F 75% 29.94 in 10.0 mi West 13.8 mph 17.3 mph N/A   Overcast
7:35 AM 37.4 °F 28.9 °F 32.0 °F 81% 29.94 in 10.0 mi West 13.8 mph 18.4 mph N/A   Overcast
7:55 AM 37.4 °F 29.8 °F 32.0 °F 81% 29.95 in 10.0 mi West 11.5 mph - N/A   Overcast
8:15 AM 37.4 °F 29.3 °F 32.0 °F 81% 29.95 in 10.0 mi West 12.7 mph - N/A   Mostly Cloudy
8:35 AM 37.4 °F 29.8 °F 32.0 °F 81% 29.95 in 10.0 mi West 11.5 mph - N/A   Scattered Clouds
8:55 AM 37.4 °F 29.3 °F 32.0 °F 81% 29.95 in 10.0 mi West 12.7 mph 18.4 mph N/A   Clear
9:15 AM 39.2 °F 31.2 °F 32.0 °F 75% 29.95 in 10.0 mi West 13.8 mph 18.4 mph N/A   Clear
9:35 AM 39.2 °F 31.2 °F 32.0 °F 75% 29.97 in 10.0 mi West 13.8 mph - N/A   Scattered Clouds
9:55 AM 41.0 °F 34.3 °F 32.0 °F 70% 29.97 in 10.0 mi West 11.5 mph - N/A   Scattered Clouds
10:15 AM 41.0 °F 34.7 °F 32.0 °F 70% 29.97 in 10.0 mi West 10.4 mph - N/A   Mostly Cloudy
10:35 AM 39.2 °F 31.6 °F 32.0 °F 75% 29.98 in 10.0 mi West 12.7 mph - N/A   Mostly Cloudy
10:55 AM 41.0 °F 33.5 °F 32.0 °F 70% 29.98 in 10.0 mi West 13.8 mph - N/A   Overcast
11:15 AM 41.0 °F 33.9 °F 32.0 °F 70% 29.98 in 10.0 mi West 12.7 mph - N/A   Mostly Cloudy
11:35 AM 41.0 °F 34.7 °F 32.0 °F 70% 29.99 in 10.0 mi West 10.4 mph - N/A   Overcast
11:55 AM 41.0 °F 35.8 °F 32.0 °F 70% 29.99 in 10.0 mi WSW 8.1 mph - N/A   Overcast
12:15 PM 41.0 °F 33.9 °F 32.0 °F 70% 29.99 in 10.0 mi West 12.7 mph 17.3 mph N/A   Overcast
12:35 PM 42.8 °F 38.6 °F 32.0 °F 66% 29.99 in 10.0 mi WSW 6.9 mph - N/A   Overcast
12:55 PM 42.8 °F 37.5 °F 32.0 °F 66% 29.99 in 10.0 mi WNW 9.2 mph - N/A   Overcast
1:15 PM 42.8 °F 37.0 °F 32.0 °F 66% 29.99 in 10.0 mi West 10.4 mph - N/A   Overcast
1:35 PM 41.0 °F 36.4 °F 32.0 °F 70% 29.98 in 10.0 mi WSW 6.9 mph - N/A   Overcast
1:55 PM 42.8 °F 39.3 °F 32.0 °F 66% 29.98 in 10.0 mi West 5.8 mph - N/A   Overcast
2:15 PM 42.8 °F 37.5 °F 32.0 °F 66% 29.97 in 10.0 mi West 9.2 mph - N/A   Overcast
2:35 PM 42.8 °F 37.0 °F 32.0 °F 66% 29.97 in 10.0 mi West 10.4 mph - N/A   Overcast
2:55 PM 44.6 °F 40.2 °F 32.0 °F 61% 29.96 in 10.0 mi WSW 8.1 mph - N/A   Overcast
3:15 PM 44.6 °F 38.4 °F 32.0 °F 61% 29.96 in 10.0 mi West 12.7 mph - N/A   Overcast
3:35 PM 44.6 °F 40.2 °F 32.0 °F 61% 29.96 in 10.0 mi West 8.1 mph - N/A   Mostly Cloudy
3:55 PM 46.4 °F 42.9 °F 32.0 °F 57% 29.96 in 10.0 mi West 6.9 mph - N/A   Mostly Cloudy
4:15 PM 44.6 °F 39.7 °F 33.8 °F 66% 29.96 in 10.0 mi SW 9.2 mph - N/A   Mostly Cloudy
4:35 PM 44.6 °F - 32.0 °F 61% 29.96 in 10.0 mi Calm Calm - N/A   Mostly Cloudy
4:55 PM 46.4 °F 41.9 °F 32.0 °F 57% 29.96 in 10.0 mi WSW 9.2 mph - N/A   Overcast
5:15 PM 44.6 °F 40.7 °F 32.0 °F 61% 29.97 in 10.0 mi West 6.9 mph - N/A   Mostly Cloudy
5:35 PM 46.4 °F 43.5 °F 33.8 °F 62% 29.97 in 10.0 mi West 5.8 mph - N/A   Mostly Cloudy
5:55 PM 46.4 °F 43.5 °F 32.0 °F 57% 29.98 in 10.0 mi West 5.8 mph - N/A   Scattered Clouds
6:15 PM 46.4 °F 43.5 °F 32.0 °F 57% 29.98 in 10.0 mi West 5.8 mph - N/A   Scattered Clouds
6:35 PM 44.6 °F 41.4 °F 32.0 °F 61% 29.98 in 10.0 mi West 5.8 mph - N/A   Clear
6:55 PM 44.6 °F 41.4 °F 33.8 °F 66% 29.98 in 10.0 mi West 5.8 mph - N/A   Clear
7:15 PM 44.6 °F 43.1 °F 33.8 °F 66% 29.98 in 10.0 mi WSW 3.5 mph - N/A   Clear
7:35 PM 44.6 °F 43.1 °F 35.6 °F 71% 29.99 in 10.0 mi West 3.5 mph - N/A   Clear
7:55 PM 42.8 °F 41.1 °F 35.6 °F 76% 30.00 in 10.0 mi WSW 3.5 mph - N/A   Clear
8:15 PM 42.8 °F - 35.6 °F 76% 30.01 in 10.0 mi Calm Calm - N/A   Scattered Clouds
8:35 PM 42.8 °F - 35.6 °F 76% 30.01 in 10.0 mi Calm Calm - N/A   Mostly Cloudy
8:55 PM 42.8 °F - 35.6 °F 76% 30.02 in 10.0 mi Calm Calm - N/A   Mostly Cloudy
9:15 PM 41.0 °F - 33.8 °F 76% 30.02 in 10.0 mi Calm Calm - N/A   Mostly Cloudy
9:35 PM 41.0 °F - 35.6 °F 81% 30.02 in 10.0 mi Calm Calm - N/A   Scattered Clouds
9:55 PM 39.2 °F - 35.6 °F 87% 30.03 in 10.0 mi Calm Calm - N/A   Clear
10:15 PM 37.4 °F - 35.6 °F 93% 30.03 in 10.0 mi Calm Calm - N/A   Clear
10:35 PM 37.4 °F 34.9 °F 33.8 °F 87% 30.04 in 10.0 mi East 3.5 mph - N/A   Clear
10:55 PM 37.4 °F - 35.6 °F 93% 30.05 in 10.0 mi Calm Calm - N/A   Clear
11:15 PM 37.4 °F - 33.8 °F 87% 30.06 in 10.0 mi Calm Calm - N/A   Clear
11:35 PM 35.6 °F - 32.0 °F 87% 30.06 in 10.0 mi Calm Calm - N/A   Clear
11:55 PM 35.6 °F - 33.8 °F 93% 30.05 in 10.0 mi Calm Calm - N/A   Clear